Location: Saint-Michel-des-Saints
(46.6688°N, 73.9573°W)
Time: 14:11:38
(UTC-04:00)

N. Korean satellite - Visible Passes

Search period start: 23 October 2019 00:00
Search period end: 02 November 2019 00:00
Orbit: 455 x 508 km, 97.2° (Epoch: 22 October)

Date Brightness Start Highest point End Pass type
(mag) Time Alt. Az. Time Alt. Az. Time Alt. Az.
23 Oct 10.2 05:50:40 10° ENE 05:52:39 14° E 05:54:37 10° ESE visible
24 Oct 10.2 19:11:07 10° WSW 19:12:34 12° W 19:14:00 10° WNW visible
25 Oct 8.1 06:32:10 10° NNE 06:35:40 42° E 06:39:10 10° S visible
25 Oct 9.3 18:44:12 10° SSW 18:47:02 23° W 18:49:53 10° NW visible
26 Oct 9.5 06:07:20 10° NE 06:10:14 22° E 06:13:09 10° SE visible
26 Oct 7.7 18:18:15 10° S 18:21:35 47° W 18:25:00 10° NNW visible
27 Oct 10.4 05:43:23 10° ENE 05:44:42 12° E 05:46:02 10° ESE visible
28 Oct 7.0 06:49:28 10° NNE 06:53:09 70° ESE 06:56:50 10° S visible
28 Oct 10.0 19:02:30 10° SW 19:04:34 15° W 19:06:40 10° NW visible
29 Oct 8.6 06:24:22 10° NNE 06:27:46 34° E 06:31:10 10° SSE visible
29 Oct 8.9 18:36:01 10° SSW 18:39:04 29° W 18:42:11 10° NNW visible
30 Oct 9.8 05:59:40 10° NE 06:02:17 18° E 06:04:55 10° SE visible
01 Nov 7.5 06:41:34 10° NNE 06:45:14 56° E 06:48:53 10° S visible
01 Nov 9.7 18:54:03 10° SW 18:56:33 18° W 18:59:07 10° NW visible
